Temp
81 84 84 83 86 86 87 87 86 85 86 85 85 85 84 85 86 85 84 83 83 87
81 81 83 83 83 86 85 87 85 86 85 85 85 85 85 86 84 84 84 84 83 85
82 81 82 82 81 83 84 83 85 84 85 85 85 85 84 85 85 83 85 86 83 83
82 82 82 83 82 83 83 83 83 84 84 85 85 85 83 83 85 83 83 84 83 83
82 82 82 82 83 83 82 83 83 83 83 84 85 85 83 83 86 83 83 84 83 83
82 82 82 82 83 83 82 83 83 83 82 84 85 84 84 84 85 85 85 85 84 84
81 82 83 82 82 82 82 82 82 82 83 84 85 85 85 85 84 84 86 86 85 85
82 82 82 82 82 82 82 83 83 82 83 84 85 88 84 85 85 84 84 85 85 86
82 81 81 81 81 81 81 81 82 82 82 82 86 76 72 79 85 85 84 83 85 85
81 80 80 81 81 80 80 82 81 81 82 82 83 70 69 70 84 85 85 84 84 86
81 80 81 80 80 80 81 80 80 81 82 82 83 68 66 68 81 83 84 85 84 84
81 80 80 80 80 81 80 80 80 81 81 81 82 65 64 67 82 82 82 84 84 84
82 81 80 80 80 81 82 82 84 82 82 76 81 67 62 67 83 82 84 83 83 70
82 81 81 81 81 81 81 83 81 82 83 82 80 80 61 59 80 84 84 85 86 87
MSLP
1015.79 1016.25 1016.56 1016.91 1017.05 1017.35 1017.55 1017.74 1018.01 1018.31 1018.57 1018.86 1019.10 1019.37 1019.71 1019.94 1020.14 1020.45 1020.77 1021.04 1021.17 1021.08
1015.04 1015.56 1015.78 1016.14 1016.66 1016.91 1017.21 1017.41 1017.70 1017.84 1018.16 1018.34 1018.70 1019.05 1019.31 1019.66 1019.90 1020.22 1020.48 1020.65 1020.89 1020.92
1014.11 1014.72 1015.17 1015.77 1016.04 1016.32 1016.68 1017.17 1017.36 1017.55 1017.74 1018.04 1018.24 1018.62 1019.05 1019.27 1019.59 1019.93 1020.07 1020.25 1020.52 1020.65
1013.12 1013.81 1014.51 1014.88 1015.30 1015.75 1016.21 1016.69 1017.11 1017.28 1017.40 1017.63 1017.94 1018.23 1018.62 1018.86 1019.09 1019.49 1019.61 1019.81 1020.00 1020.09
1012.16 1012.88 1013.49 1013.96 1014.44 1015.03 1015.52 1016.01 1016.47 1016.87 1017.00 1017.19 1017.44 1017.73 1018.06 1018.27 1018.39 1018.78 1018.91 1019.06 1019.31 1019.41
1011.17 1011.93 1012.47 1013.01 1013.61 1014.20 1014.78 1015.17 1015.76 1016.20 1016.42 1016.55 1016.89 1017.19 1017.43 1017.69 1017.80 1017.99 1018.14 1018.33 1018.55 1018.62
1009.98 1010.71 1011.33 1012.05 1012.77 1013.33 1013.87 1014.33 1014.88 1015.35 1015.58 1015.87 1016.27 1016.58 1016.76 1017.01 1017.20 1017.31 1017.42 1017.65 1017.82 1017.93
1008.93 1009.73 1010.58 1011.33 1011.93 1012.55 1013.12 1013.41 1013.95 1014.50 1014.81 1015.14 1015.56 1015.71 1016.02 1016.24 1016.43 1016.64 1016.79 1016.96 1017.06 1017.17
1008.17 1008.93 1009.60 1010.33 1011.00 1011.73 1012.21 1012.67 1013.19 1013.60 1013.96 1014.32 1014.54 1014.65 1015.12 1015.58 1015.67 1015.84 1016.06 1016.10 1016.21 1016.45
1007.19 1007.91 1008.49 1009.29 1010.18 1010.67 1011.17 1011.81 1012.24 1012.70 1013.16 1013.35 1013.67 1013.93 1014.35 1014.85 1015.17 1015.07 1015.15 1015.26 1015.34 1015.41
1006.34 1006.99 1007.75 1008.52 1009.16 1009.81 1010.49 1010.95 1011.32 1011.72 1012.11 1012.42 1012.51 1013.00 1013.49 1013.99 1014.45 1014.38 1014.28 1014.31 1014.43 1014.60
1005.40 1006.21 1006.99 1007.65 1008.24 1008.84 1009.53 1010.00 1010.31 1010.65 1011.07 1011.28 1011.45 1011.94 1012.50 1013.39 1013.57 1013.35 1013.23 1013.29 1013.41 1013.61
1004.75 1005.46 1006.03 1006.63 1007.15 1007.61 1008.27 1008.69 1009.23 1009.57 1009.89 1010.18 1010.41 1010.89 1011.41 1012.26 1012.35 1012.09 1012.07 1012.17 1012.33 1012.64
1003.97 1004.46 1005.03 1005.74 1006.33 1006.87 1007.49 1007.91 1008.36 1008.47 1008.77 1009.21 1009.53 1009.82 1010.34 1011.01 1011.33 1010.94 1010.89 1010.90 1010.88 1011.19
Wind_Speed
16 12 12 12 11 9 9 9 9 9 9 9 8 7 6 5 5 4 5 6 5 4
15 15 13 14 12 10 8 8 10 10 9 10 9 9 8 7 7 6 6 6 6 6
16 16 14 12 14 12 10 10 9 10 10 9 9 9 9 8 9 8 7 6 7 7
16 17 15 15 14 13 12 11 11 11 11 10 9 9 9 10 10 10 10 9 9 9
17 16 17 16 16 14 14 12 12 12 13 12 11 10 11 11 9 10 11 11 11 11
18 17 17 16 15 15 14 14 13 13 13 13 12 11 11 11 11 11 11 11 11 12
19 19 18 16 16 16 15 14 14 14 14 14 13 13 13 13 12 12 11 11 12 12
18 18 16 15 16 16 15 15 14 15 15 15 14 13 15 14 13 13 13 12 12 13
18 17 17 17 16 16 16 16 15 16 16 16 13 15 14 14 14 14 14 14 14 13
18 18 18 17 16 16 16 15 16 16 16 16 16 13 15 16 15 14 13 14 13 14
18 18 16 16 16 15 14 15 14 15 16 15 15 14 16 16 17 15 16 16 15 15
18 17 16 17 16 14 15 15 15 15 16 16 16 15 17 14 15 16 17 16 16 16
17 17 17 17 17 16 15 15 13 16 16 16 17 15 17 17 12 14 13 14 15 15
17 17 16 15 13 13 14 12 14 14 14 16 16 16 17 19 14 13 13 13 12 12
Wind_Direction
205 211 219 221 229 229 232 227 208 207 214 219 222 222 218 226 242 223 223 227 228 248
203 209 216 218 216 224 226 228 224 213 216 221 222 222 221 234 231 232 233 238 238 245
202 205 211 212 217 216 217 216 219 218 222 225 226 225 222 231 232 227 233 236 229 236
204 207 207 212 215 214 210 206 213 220 222 222 222 224 222 235 241 230 238 235 234 237
203 204 207 210 212 210 210 207 213 219 227 227 228 227 227 232 236 228 234 235 238 242
202 200 207 209 207 206 207 209 213 219 223 227 223 226 227 234 238 236 237 240 238 244
197 200 204 205 204 204 205 207 208 214 223 227 230 231 234 231 236 240 242 243 243 245
197 201 202 202 203 204 207 211 209 212 221 226 230 232 229 231 232 236 242 244 246 246
194 195 197 200 200 201 206 210 210 215 220 225 228 227 214 225 232 236 240 246 246 248
192 194 196 197 199 202 206 207 214 218 219 225 229 219 209 206 233 240 239 242 247 251
192 195 193 195 199 202 205 210 212 218 220 225 229 209 209 201 226 237 240 242 242 245
191 191 191 196 198 200 204 209 212 216 217 222 231 207 210 194 228 237 239 240 239 238
188 190 193 194 197 201 204 213 216 221 222 223 230 212 202 197 228 234 239 239 241 227
189 193 196 195 197 199 206 216 217 221 223 226 225 231 200 194 221 232 232 238 240 240